Wetbulb
32.64 32.62 32.45 33.30 33.55 34.18 34.61 35.08 32.06 28.52 28.68 31.01 31.16 33.16 33.96 34.33 36.16 35.47 34.08 40.43 41.38 42.32 43.82 43.40 43.18 43.37 43.85 44.46 44.61 45.18 45.92 47.45 49.96 50.43 51.14 51.75 52.50 53.72
33.44 32.40 32.37 32.42 32.75 32.75 33.41 34.08 33.38 31.14 28.48 30.82 30.73 31.71 33.23 35.12 36.15 34.10 33.86 37.99 39.02 40.78 42.24 42.19 42.34 42.33 42.60 43.10 42.89 43.19 43.85 45.28 46.52 46.81 47.39 47.98 49.18 50.19
33.28 32.79 32.37 32.17 31.95 31.81 32.50 32.95 32.59 31.54 29.34 31.25 31.27 32.13 31.66 31.13 32.26 32.19 33.88 32.79 32.10 38.65 40.55 41.74 41.56 41.26 41.45 41.79 41.80 41.82 42.05 42.87 44.34 44.51 45.11 45.55 46.14 47.09
32.74 32.09 31.87 33.79 30.92 30.93 30.99 31.03 30.58 30.61 29.91 28.63 28.59 29.70 30.20 30.94 30.61 30.03 33.13 34.35 31.35 36.19 39.42 40.36 39.60 39.95 40.68 40.68 40.52 40.47 40.58 41.16 41.57 42.85 42.96 43.24 43.91 44.88
32.26 31.92 31.94 30.91 29.94 29.68 29.74 29.26 29.09 31.38 29.51 28.78 28.50 28.17 28.62 29.49 28.78 29.48 30.38 30.14 32.93 36.44 37.48 37.99 38.71 38.53 39.34 39.73 39.42 38.92 39.40 39.77 40.58 41.62 41.04 41.20 41.78 42.82
32.28 32.80 33.61 32.44 30.60 29.51 29.02 28.64 28.92 27.97 27.92 28.02 27.79 27.49 27.57 28.93 28.26 27.43 27.73 28.49 29.12 32.67 34.72 35.58 36.94 36.69 37.21 38.33 37.44 36.96 38.24 38.74 39.58 40.19 39.94 39.97 40.04 40.83
31.14 32.42 33.83 33.49 35.95 33.98 31.70 29.12 28.11 27.92 28.00 27.72 27.46 27.31 27.61 27.54 26.90 27.72 27.60 28.03 28.34 28.88 29.65 29.57 30.65 29.36 30.98 33.80 34.21 36.82 37.92 38.18 38.37 38.62 38.83 39.06 39.22 39.81
29.99 31.07 32.77 36.46 37.04 38.89 39.17 37.48 31.88 28.25 27.89 26.98 26.39 26.91 27.81 27.16 27.20 27.46 27.49 26.59 25.82 30.17 29.05 28.55 29.33 29.60 30.04 29.80 34.93 36.25 36.75 37.01 37.08 37.11 37.30 37.83 38.17 38.37
30.64 30.52 31.43 33.64 36.43 34.99 38.27 39.37 38.72 38.93 36.37 29.73 28.03 28.59 28.96 27.78 27.65 27.42 27.47 27.27 28.24 31.30 28.61 27.16 28.48 28.31 29.52 30.47 33.82 36.58 35.85 36.24 36.32 36.72 36.74 36.97 36.97 37.07
30.70 30.61 31.07 31.95 32.66 33.29 32.24 30.39 30.45 30.69 31.90 32.39 29.45 29.11 28.73 29.74 29.99 31.46 32.16 29.93 30.49 30.61 29.47 25.15 26.43 26.57 27.94 28.10 32.91 36.04 36.13 35.64 35.30 35.44 35.70 35.71 35.96 36.13
32.34 31.77 32.02 32.17 34.79 37.35 30.92 29.67 29.68 29.27 33.94 36.27 36.00 36.39 36.92 37.59 36.94 31.50 27.54 25.65 26.25 26.35 28.29 26.68 25.87 25.06 25.82 25.99 28.15 32.73 33.91 33.98 34.20 34.66 34.80 34.94 34.87 34.94
33.48 32.18 36.55 33.53 36.21 37.32 33.56 30.19 29.47 29.57 28.58 29.02 29.66 31.95 33.96 32.35 35.26 30.66 28.74 25.24 25.87 23.81 26.44 26.69 26.20 25.51 23.08 25.34 26.02 26.87 27.24 31.49 33.05 33.27 33.58 33.89 33.80 28.61
32.11 31.41 32.55 37.91 37.90 37.57 37.38 32.17 31.38 31.81 31.45 29.79 29.31 29.01 29.48 28.64 28.40 28.42 28.10 27.32 25.12 25.40 28.03 27.42 23.56 24.92 25.62 23.88 25.10 25.74 25.94 26.03 26.65 27.62 30.80 32.03 32.40 32.04
31.55 31.65 32.09 36.27 37.50 38.76 37.18 37.17 36.50 35.91 30.42 29.22 28.97 30.27 28.56 26.69 27.33 27.32 28.05 28.01 27.88 27.50 28.23 27.66 20.65 21.41 19.04 22.73 23.07 24.72 24.62 25.76 25.67 25.19 25.44 28.59 30.64 31.71
32.93 33.73 34.90 35.89 37.47 36.94 36.40 36.73 37.33 32.48 30.99 29.38 29.80 28.78 27.51 27.79 27.12 27.03 27.73 27.89 27.30 27.10 28.47 27.34 23.88 24.01 21.81 22.79 22.83 23.66 24.99 24.55 24.89 24.64 23.99 24.19 24.50 25.46
37.29 35.01 35.64 36.07 35.85 33.47 33.40 34.27 31.95 30.75 29.71 29.24 28.61 28.91 26.85 25.07 25.43 26.49 26.05 27.61 26.11 24.58 27.37 27.45 25.78 23.38 22.57 23.36 23.69 23.43 24.03 21.78 22.94 23.32 23.17 23.49 25.04 25.74
36.21 33.65 32.91 31.91 31.07 30.70 30.25 30.11 29.80 29.96 29.87 29.08 27.17 26.05 25.97 26.21 26.12 26.86 26.74 26.61 24.20 18.95 19.23 22.48 25.44 25.35 24.45 23.20 21.95 23.38 23.10 23.19 24.19 24.06 23.87 23.15 24.40 25.08
33.46 30.91 31.04 31.18 30.32 30.13 29.53 29.22 29.15 30.09 28.38 27.41 26.23 25.48 24.94 24.52 24.30 25.48 26.42 25.01 23.22 22.24 17.66 17.21 15.83 15.37 17.61 20.65 26.94 22.42 22.97 22.80 23.81 24.16 24.40 23.26 23.13 25.30
31.67 30.48 29.67 30.06 30.02 29.92 29.25 28.47 27.59 27.87 27.52 25.47 23.96 22.85 21.54 21.23 24.74 24.51 25.12 24.76 23.54 22.11 13.86 13.77 7.13 16.18 16.72 14.95 19.63 29.76 22.20 23.01 23.17 22.99 23.83 23.38 22.28 24.05
31.42 30.10 29.02 29.61 29.06 28.40 27.94 27.58 27.52 26.11 23.83 22.71 19.77 19.89 20.64 19.35 20.24 23.04 23.30 22.15 22.34 16.71 16.60 9.04 6.83 10.50 15.67 15.48 18.25 22.15 28.53 23.82 23.02 22.24 22.68 24.29 25.24 28.83
31.56 30.02 29.56 29.33 28.77 28.34 27.86 27.48 27.27 25.37 22.37 16.47 16.73 19.07 20.35 19.65 19.87 22.66 22.61 24.80 24.63 21.39 15.97 17.30 18.60 24.98 21.64 22.59 16.54 17.34 22.89 28.06 27.42 23.59 22.72 22.32 22.76 23.64
30.97 30.37 29.89 30.00 29.28 28.22 27.20 26.66 24.98 24.63 20.66 18.64 17.70 19.52 20.76 20.32 21.43 20.90 22.28 21.60 19.16 16.42 18.48 19.94 18.80 11.27 14.47 20.81 20.35 21.66 23.04 25.09 27.86 29.40 29.95 29.03 24.85 20.71
30.99 30.80 30.36 29.52 29.10 27.73 26.06 25.13 24.10 21.52 21.75 19.44 20.66 20.58 21.30 20.15 21.45 21.85 20.64 21.01 18.27 18.65 18.24 18.23 18.96 14.52 20.49 22.59 23.81 23.62 22.69 22.70 23.80 23.20 24.32 29.24 29.89 30.13
MSLP
1019.72 1019.68 1019.67 1019.51 1019.50 1019.51 1019.58 1019.71 1020.01 1019.97 1019.14 1018.04 1017.85 1017.33 1017.01 1016.75 1016.39 1016.19 1016.15 1015.73 1015.35 1015.00 1014.39 1014.11 1013.90 1013.44 1012.79 1012.47 1012.33 1011.85 1011.28 1010.45 1009.66 1009.06 1008.60 1008.15 1007.73 1007.03
1019.22 1019.26 1019.15 1019.05 1019.03 1019.07 1019.06 1019.04 1019.32 1019.57 1019.46 1018.21 1017.79 1017.39 1017.01 1016.72 1016.44 1016.25 1016.06 1015.76 1015.52 1015.10 1014.49 1014.10 1013.80 1013.66 1013.10 1012.48 1012.37 1012.22 1011.66 1010.81 1010.02 1009.64 1009.22 1008.67 1008.41 1007.48
1018.58 1018.59 1018.48 1018.42 1018.39 1018.47 1018.61 1018.71 1018.89 1019.04 1019.01 1018.13 1017.85 1017.38 1017.14 1016.81 1016.55 1016.29 1015.96 1015.74 1015.57 1015.13 1014.51 1013.93 1013.74 1013.55 1013.14 1012.52 1012.21 1012.09 1011.85 1011.28 1010.48 1010.19 1009.85 1009.21 1008.90 1008.15
1017.35 1017.71 1017.69 1017.80 1017.93 1017.91 1018.04 1018.22 1018.34 1018.27 1018.58 1018.36 1017.86 1017.48 1017.21 1016.77 1016.57 1016.32 1015.92 1015.66 1015.53 1015.08 1014.40 1013.80 1013.93 1013.47 1013.09 1012.58 1012.15 1011.86 1011.82 1011.52 1011.24 1010.63 1010.20 1009.96 1009.45 1008.46
1016.38 1016.61 1016.65 1016.97 1017.20 1017.24 1017.37 1017.64 1017.78 1017.70 1017.84 1017.94 1017.74 1017.57 1017.24 1016.71 1016.49 1016.13 1015.90 1015.73 1015.27 1014.85 1014.45 1014.01 1013.84 1013.50 1013.04 1012.65 1012.20 1011.89 1011.59 1011.40 1011.13 1010.76 1010.74 1010.33 1009.95 1009.25
1015.20 1015.40 1015.53 1015.83 1016.08 1016.33 1016.70 1016.91 1017.14 1017.43 1017.49 1017.51 1017.33 1017.23 1017.14 1016.64 1016.45 1016.30 1015.87 1015.61 1015.18 1014.52 1014.24 1014.08 1013.78 1013.45 1013.02 1012.63 1012.40 1012.07 1011.73 1011.34 1011.07 1010.73 1010.49 1010.34 1010.36 1009.77
1014.17 1014.30 1014.44 1014.55 1014.71 1014.98 1015.41 1015.79 1016.33 1016.65 1016.85 1016.89 1016.87 1016.70 1016.67 1016.59 1016.46 1016.07 1015.86 1015.43 1014.95 1014.54 1014.16 1013.96 1013.75 1013.49 1013.04 1012.71 1012.41 1011.99 1011.67 1011.41 1011.17 1010.87 1010.38 1010.08 1009.62 1009.01
1012.88 1013.10 1013.28 1013.54 1013.76 1013.95 1014.13 1014.57 1015.02 1015.45 1015.83 1016.07 1016.09 1016.02 1016.01 1015.98 1015.84 1015.80 1015.61 1015.39 1014.98 1014.27 1014.17 1013.85 1013.54 1013.36 1012.96 1012.63 1012.04 1011.67 1011.50 1011.37 1011.25 1011.25 1010.99 1010.50 1009.99 1009.50
1011.64 1011.84 1012.24 1012.39 1012.69 1013.04 1013.28 1013.47 1013.72 1013.89 1014.30 1014.65 1014.98 1015.09 1015.14 1015.27 1015.30 1015.24 1015.11 1014.98 1014.63 1014.07 1014.15 1013.64 1013.44 1013.19 1012.77 1012.26 1011.76 1011.16 1010.94 1011.04 1011.11 1010.98 1010.80 1010.65 1010.31 1009.92
1010.44 1010.60 1010.99 1011.26 1011.54 1012.06 1012.59 1013.00 1013.15 1013.26 1013.31 1013.54 1013.74 1014.14 1014.29 1014.30 1014.43 1014.40 1014.36 1014.27 1013.95 1013.65 1013.75 1013.63 1013.32 1013.10 1012.42 1012.07 1011.66 1011.02 1010.91 1011.02 1011.13 1010.92 1010.55 1010.24 1009.99 1009.77
1009.34 1009.57 1009.82 1010.18 1010.57 1011.03 1011.87 1012.17 1012.48 1012.61 1012.70 1012.72 1012.86 1013.17 1013.23 1013.15 1013.27 1013.72 1013.91 1014.07 1013.69 1013.39 1013.40 1013.46 1013.30 1013.05 1012.33 1012.05 1011.74 1011.44 1011.31 1011.15 1010.86 1010.58 1010.30 1010.08 1009.81 1009.55
1008.27 1008.48 1008.70 1009.15 1009.59 1010.13 1010.72 1011.19 1011.60 1011.74 1012.30 1012.36 1012.44 1012.60 1012.68 1012.94 1012.93 1013.19 1013.43 1013.72 1013.77 1013.44 1013.22 1013.42 1013.28 1013.34 1012.79 1012.05 1011.74 1011.61 1011.33 1011.06 1010.74 1010.45 1010.08 1009.75 1009.47 1009.46
1007.59 1007.79 1007.89 1008.13 1008.65 1009.19 1009.82 1010.11 1010.46 1011.00 1011.39 1011.71 1011.98 1012.25 1012.45 1012.74 1012.78 1012.85 1012.93 1013.17 1013.34 1013.23 1012.91 1013.06 1013.28 1013.41 1013.41 1012.70 1011.65 1011.24 1011.19 1010.97 1010.68 1010.40 1010.08 1009.79 1009.40 1009.12
1006.60 1006.85 1007.12 1007.51 1007.91 1008.41 1008.68 1008.89 1009.57 1010.09 1010.67 1011.09 1011.51 1011.80 1012.05 1012.34 1012.26 1012.31 1012.42 1012.58 1012.75 1012.79 1012.69 1012.92 1013.27 1013.26 1013.36 1012.92 1012.27 1011.16 1010.94 1010.73 1010.30 1009.98 1009.93 1009.56 1009.18 1008.91
1005.95 1006.18 1006.55 1006.97 1007.28 1007.64 1007.87 1008.13 1008.61 1009.14 1009.84 1010.47 1010.79 1011.11 1011.39 1011.51 1011.75 1011.99 1012.07 1012.23 1012.40 1012.41 1012.28 1012.38 1012.62 1012.63 1012.75 1012.44 1011.91 1011.51 1011.26 1010.39 1010.19 1010.14 1010.03 1009.81 1009.55 1009.20
1004.98 1005.47 1005.81 1006.30 1006.67 1007.03 1007.33 1007.56 1008.01 1008.55 1009.10 1009.67 1010.14 1010.48 1010.89 1011.28 1011.48 1011.59 1011.86 1011.96 1012.13 1012.17 1011.96 1011.84 1011.96 1012.19 1012.29 1011.96 1011.70 1010.88 1010.73 1010.81 1009.95 1009.87 1009.78 1009.39 1009.12 1008.94
1004.75 1004.85 1005.20 1005.73 1006.10 1006.55 1007.04 1007.39 1007.81 1008.28 1008.66 1009.21 1009.68 1010.11 1010.49 1010.79 1011.00 1011.12 1011.30 1011.59 1011.81 1011.90 1011.89 1011.77 1011.55 1011.57 1011.58 1011.49 1011.04 1010.22 1009.67 1009.48 1009.10 1008.86 1008.95 1008.73 1008.33 1008.06
1004.45 1004.31 1004.50 1004.92 1005.34 1005.92 1006.49 1007.07 1007.54 1007.95 1008.30 1008.80 1009.26 1009.61 1009.96 1010.28 1010.53 1010.80 1010.99 1011.25 1011.34 1011.32 1011.52 1011.73 1011.75 1011.68 1011.20 1010.17 1009.74 1009.38 1009.24 1008.91 1008.44 1008.24 1008.03 1007.88 1007.30 1006.67
1003.74 1003.87 1004.15 1004.38 1004.77 1005.34 1006.02 1006.50 1007.00 1007.44 1007.78 1008.33 1008.77 1009.15 1009.51 1009.82 1010.12 1010.38 1010.59 1010.76 1010.84 1010.93 1011.10 1011.22 1011.29 1011.70 1011.32 1010.38 1008.88 1008.41 1008.59 1008.13 1007.85 1007.52 1007.20 1007.00 1006.70 1005.89
1003.28 1003.55 1003.90 1004.18 1004.56 1005.13 1005.74 1006.14 1006.58 1007.03 1007.55 1007.97 1008.41 1008.76 1009.12 1009.42 1009.76 1009.93 1010.13 1010.32 1010.44 1010.62 1010.66 1010.64 1010.68 1010.83 1010.61 1009.86 1009.04 1007.75 1007.59 1007.42 1007.21 1006.84 1006.29 1005.87 1005.52 1005.06
1002.67 1002.99 1003.38 1003.73 1004.22 1004.80 1005.29 1005.75 1006.16 1006.62 1007.09 1007.57 1007.98 1008.36 1008.72 1009.05 1009.29 1009.45 1009.58 1009.56 1009.63 1009.84 1010.05 1009.90 1009.41 1009.29 1009.12 1009.01 1008.57 1007.55 1006.24 1006.30 1006.12 1005.93 1005.46 1005.15 1004.50 1004.06
1002.24 1002.51 1002.83 1003.16 1003.65 1004.26 1004.77 1005.23 1005.71 1006.20 1006.64 1007.05 1007.43 1007.85 1008.22 1008.53 1008.77 1008.97 1009.09 1009.20 1009.31 1009.47 1009.25 1008.83 1008.52 1008.53 1008.65 1008.11 1007.27 1006.60 1005.75 1004.88 1004.55 1004.43 1004.14 1003.89 1003.63 1002.80
1001.63 1001.86 1002.12 1002.57 1003.01 1003.59 1004.16 1004.68 1005.11 1005.57 1006.05 1006.43 1006.87 1007.30 1007.67 1008.05 1008.25 1008.45 1008.59 1008.71 1008.79 1008.78 1008.52 1008.21 1007.97 1007.91 1007.49 1006.99 1006.19 1005.45 1004.85 1004.41 1003.96 1003.43 1002.75 1002.51 1002.20 1001.76
Wind_Speed
5 5 4 4 4 4 4 4 4 3 3 3 3 3 4 4 6 3 4 9 11 14 13 12 14 14 14 14 16 17 17 16 18 19 17 18 17 18
4 5 5 4 5 4 4 4 4 4 4 2 3 3 3 3 6 5 5 6 11 14 13 10 11 15 14 12 12 15 16 17 16 18 18 18 17 16
6 7 7 6 4 4 3 3 3 4 5 4 2 2 3 4 5 5 4 4 4 13 13 10 11 15 14 13 12 13 15 15 15 15 17 17 18 17
10 8 8 5 6 6 4 5 5 4 4 7 3 2 3 3 3 4 4 3 4 9 13 7 11 13 13 13 11 13 13 15 13 12 15 16 17 18
9 10 9 7 7 5 5 5 4 4 4 4 4 1 3 2 3 3 3 4 4 11 8 6 11 14 13 12 11 13 14 14 14 11 12 13 16 16
10 10 10 10 9 8 6 7 5 4 4 4 4 3 3 3 2 3 3 2 4 5 5 6 11 13 12 12 12 12 11 12 12 12 13 14 15 14
10 10 11 13 17 14 7 7 6 5 4 4 4 2 3 3 4 2 3 4 4 3 2 3 4 3 4 8 8 10 10 10 8 11 15 15 16 16
12 11 11 16 17 20 21 17 12 7 7 4 3 4 5 3 3 3 2 2 3 2 2 4 2 4 3 4 13 16 11 8 4 10 13 15 15 15
12 11 9 9 15 10 17 20 20 20 16 7 6 6 5 5 3 3 4 3 4 5 1 5 2 3 3 6 12 11 5 3 6 15 17 14 12 16
13 13 12 10 10 11 9 8 8 7 6 4 5 5 6 6 6 5 5 5 4 4 3 4 1 3 3 3 7 3 5 6 11 15 12 13 17 18
13 12 12 11 15 18 9 9 9 8 10 16 14 14 15 17 10 3 2 3 5 2 3 2 1 3 2 3 3 5 9 13 15 14 14 17 15 14
9 11 22 14 19 19 12 9 11 9 6 5 4 7 9 5 8 4 3 3 3 3 2 2 1 2 4 2 2 3 3 13 15 15 18 17 16 4
9 8 9 24 20 19 21 10 11 7 11 7 6 4 4 4 4 4 4 4 3 5 2 1 1 1 2 4 3 3 3 5 6 8 14 14 15 10
10 7 8 19 19 19 19 18 19 16 5 5 4 5 4 4 4 4 4 4 4 5 4 1 2 3 2 5 6 3 4 6 5 5 4 11 14 14
8 10 14 16 19 16 20 19 18 6 6 5 6 4 4 4 3 2 3 4 4 4 5 4 4 4 3 6 7 8 8 3 5 7 4 4 4 5
15 12 11 12 12 10 10 12 5 5 5 4 4 4 3 2 3 3 3 2 3 3 5 5 4 4 4 6 8 10 7 5 2 4 4 4 6 6
9 4 6 6 6 6 4 5 4 4 4 4 4 4 4 4 4 3 3 2 4 2 2 2 4 4 5 8 9 10 9 9 8 9 5 6 7 7
6 5 6 7 8 7 6 6 5 8 5 5 4 4 4 4 4 2 2 4 5 4 2 2 1 2 3 7 18 9 8 8 7 7 7 7 9 8
6 5 6 6 6 5 6 6 6 6 5 5 5 5 4 3 5 3 3 4 5 4 3 2 2 2 5 6 4 15 8 7 7 8 7 8 9 11
5 5 5 5 4 5 6 6 5 4 4 4 4 4 4 3 3 3 4 5 5 3 5 2 3 5 4 4 5 7 14 9 8 8 10 7 9 19
6 5 6 6 5 6 6 5 5 5 4 4 4 4 5 4 3 4 4 9 9 3 4 6 6 10 5 4 4 7 8 13 14 10 8 7 9 7
6 6 6 7 7 7 6 5 5 4 4 4 4 5 5 4 4 4 4 5 4 4 7 7 5 2 2 6 10 11 10 10 11 19 23 21 9 7
6 8 7 7 7 6 6 5 5 5 5 5 5 5 5 4 3 4 3 4 3 5 6 7 5 2 7 8 13 10 14 13 9 9 9 17 22 25
Wind_Direction
241 238 225 234 220 220 218 196 186 294 293 298 297 265 334 336 325 349 337 339 355 347 347 353 358 357 358 360 3 6 3 359 5 10 13 12 12 18
234 234 229 228 229 222 222 211 198 203 248 231 267 298 312 323 320 341 317 348 350 343 334 338 349 351 351 355 358 1 4 360 8 9 11 13 2 10
227 225 228 218 221 223 225 228 224 193 244 285 270 294 297 320 319 330 318 305 329 333 329 322 338 337 340 343 348 357 360 2 1 3 7 10 4 13
223 220 228 223 220 218 214 224 221 213 206 272 270 280 262 293 282 298 308 314 320 321 323 321 336 339 335 338 346 344 353 353 355 358 7 5 7 8
220 217 223 206 222 210 211 217 221 234 210 225 273 281 277 284 304 296 279 296 300 310 319 334 332 331 324 324 335 341 338 348 348 356 8 7 4 4
221 219 219 212 214 206 210 212 216 223 224 233 248 255 252 280 271 275 300 269 292 298 279 329 331 329 320 318 330 328 325 342 344 354 355 3 356 357
220 217 218 215 218 211 201 209 200 212 218 232 246 240 261 281 268 265 277 292 283 250 289 298 297 305 309 321 316 315 319 331 342 357 349 349 352 356
220 219 218 220 228 228 227 220 203 196 214 205 215 242 252 235 247 255 266 300 320 223 306 294 276 296 293 296 306 309 293 299 348 352 346 343 344 351
219 212 208 214 215 216 234 234 233 228 216 200 219 217 251 222 231 252 253 237 258 278 302 290 251 283 279 302 310 304 284 224 349 341 336 336 341 339
219 211 207 206 196 195 207 223 231 233 242 242 195 216 230 239 224 235 252 255 260 268 192 273 264 269 278 288 301 344 56 353 335 331 328 334 327 327
223 211 207 205 204 211 199 215 226 234 241 238 233 243 252 256 248 219 260 269 291 250 202 223 273 280 270 291 303 305 322 323 322 319 319 323 321 322
223 218 217 201 204 211 219 201 223 224 202 222 240 256 262 268 259 251 219 230 254 305 200 215 288 347 324 261 263 276 299 315 319 313 317 318 319 320
227 216 213 215 208 212 220 206 216 201 217 210 217 221 215 229 237 237 212 203 206 234 221 141 204 188 213 297 298 290 304 300 298 299 307 308 316 310
229 214 204 211 218 221 226 221 217 221 188 204 199 210 205 219 228 223 222 211 229 241 274 199 228 188 209 277 277 300 305 285 278 295 301 302 308 305
226 214 203 217 221 219 229 224 223 197 187 187 205 203 193 202 193 193 225 226 235 245 255 221 200 250 214 265 279 285 299 300 283 281 279 275 279 295
226 222 212 206 204 214 216 221 193 179 180 195 204 191 160 157 190 181 188 197 239 253 257 251 233 186 260 256 265 276 273 264 232 249 241 257 262 255
245 184 190 194 190 193 185 189 183 181 192 189 183 187 192 186 201 187 180 201 249 230 241 264 258 248 243 253 269 265 271 270 263 273 258 259 259 242
239 207 200 196 187 189 195 195 197 207 198 187 191 191 192 187 187 163 180 221 251 259 241 218 212 344 299 273 226 253 262 258 268 259 257 266 280 270
222 212 205 190 180 182 194 195 200 201 179 182 183 185 176 183 206 174 201 228 248 259 233 224 179 195 271 268 267 227 235 260 264 270 255 247 256 271
211 206 199 186 180 183 198 200 192 178 179 181 170 177 180 164 163 198 209 226 242 239 266 238 207 199 223 236 271 271 248 252 259 263 274 265 254 266
217 199 193 190 185 188 199 194 188 188 185 168 174 173 182 164 187 202 218 252 252 241 263 268 244 246 231 241 257 281 281 253 254 252 264 274 277 272
212 202 194 192 184 187 191 190 192 196 176 181 178 173 177 172 190 200 219 232 229 228 259 269 270 251 229 246 266 278 280 289 270 256 258 252 258 264
217 210 193 189 182 182 185 189 191 187 187 177 177 178 169 182 193 211 209 223 241 257 261 276 275 213 262 261 277 281 279 282 282 287 266 255 260 264